Total_Precipitation_Accumulation
1.77 1.72 1.72 1.60 1.61 1.64 1.63 1.72 1.93 1.74 1.20 0.94 0.89 0.90 0.89 0.94 1.07 1.02 0.92 1.06 1.20 1.21 1.30 1.37 1.44 1.53 1.86 2.60 3.64 4.39 4.34 3.74 3.08 2.81 3.02 3.48 4.01 4.53
1.74 1.80 1.78 1.66 1.59 1.61 1.64 1.60 1.64 1.78 1.51 0.98 0.90 0.94 0.99 1.00 1.12 1.04 1.00 1.16 1.20 1.15 1.20 1.28 1.36 1.49 1.62 1.92 2.55 3.55 4.22 4.18 3.64 3.17 3.11 3.38 3.69 4.20
1.64 1.68 1.70 1.63 1.63 1.62 1.61 1.54 1.48 1.57 1.63 1.08 0.89 0.92 1.01 1.07 1.12 1.09 1.07 1.08 1.08 1.10 1.14 1.23 1.31 1.41 1.55 1.74 2.02 2.64 3.56 4.13 4.19 3.80 3.57 3.59 3.66 3.80
1.73 1.66 1.63 1.65 1.73 1.69 1.63 1.54 1.44 1.41 1.54 1.36 1.00 0.96 1.04 1.11 1.17 1.20 1.21 1.18 1.13 1.22 1.24 1.27 1.32 1.36 1.50 1.66 1.85 2.15 2.74 3.54 4.10 4.12 3.83 3.62 3.50 3.60
1.98 1.94 1.85 1.80 1.86 1.85 1.75 1.61 1.47 1.38 1.39 1.41 1.16 1.02 1.07 1.17 1.30 1.31 1.30 1.28 1.20 1.29 1.33 1.37 1.40 1.39 1.44 1.55 1.72 1.91 2.18 2.59 3.21 3.83 4.07 3.89 3.58 3.49
2.16 2.09 2.11 2.08 2.03 1.99 1.96 1.75 1.54 1.48 1.43 1.46 1.32 1.13 1.08 1.15 1.41 1.54 1.52 1.45 1.37 1.26 1.33 1.37 1.45 1.45 1.44 1.44 1.51 1.66 1.92 2.30 2.74 3.34 3.93 4.07 3.77 3.54
1.95 1.88 1.95 2.13 2.21 2.22 2.22 2.03 1.84 1.81 1.73 1.70 1.54 1.35 1.23 1.31 1.53 1.61 1.69 1.63 1.62 1.46 1.33 1.27 1.26 1.27 1.30 1.38 1.47 1.58 1.78 2.03 2.31 2.78 3.41 3.94 4.01 3.83
1.80 1.72 1.71 1.85 1.93 2.01 2.14 2.16 2.17 2.22 2.17 2.01 1.81 1.62 1.37 1.30 1.43 1.73 1.87 1.98 2.04 1.70 1.51 1.45 1.31 1.35 1.33 1.33 1.46 1.50 1.68 1.93 2.16 2.44 2.87 3.42 3.88 4.03
1.54 1.54 1.54 1.55 1.67 1.56 1.71 1.86 1.93 2.11 2.25 2.21 2.13 1.78 1.52 1.43 1.61 1.86 1.94 2.05 2.02 1.83 1.82 1.93 1.66 1.55 1.47 1.49 1.59 1.54 1.67 1.88 2.05 2.26 2.56 2.96 3.46 3.91
1.52 1.41 1.37 1.38 1.53 1.60 1.62 1.62 1.53 1.63 1.89 2.03 2.13 1.93 1.71 1.69 1.93 2.18 2.30 2.33 2.21 2.08 2.02 2.24 1.94 1.76 1.65 1.59 1.66 1.62 1.65 1.75 1.92 2.10 2.32 2.53 2.90 3.37
1.61 1.53 1.45 1.31 1.61 1.76 1.63 1.55 1.42 1.44 1.60 1.88 2.07 2.10 2.12 2.19 2.33 2.58 2.75 2.82 2.73 2.36 2.14 2.28 2.14 1.90 1.85 1.89 1.85 1.78 1.64 1.61 1.73 1.89 2.01 2.17 2.39 2.79
1.59 1.56 1.70 1.64 1.75 1.72 1.53 1.55 1.56 1.37 1.32 1.41 1.50 1.61 1.64 1.72 2.04 2.26 2.51 2.78 2.75 2.70 2.26 2.25 2.27 2.21 2.46 2.15 1.84 1.59 1.47 1.48 1.55 1.64 1.72 1.84 2.01 2.12
1.65 1.57 1.57 1.77 1.73 1.66 1.58 1.51 1.63 1.44 1.30 1.35 1.38 1.39 1.43 1.54 1.65 1.84 2.11 2.40 2.66 2.66 2.23 2.38 2.65 2.41 2.54 2.39 2.02 1.68 1.42 1.30 1.33 1.49 1.59 1.69 1.77 1.82
1.61 1.43 1.44 1.65 1.65 1.66 1.57 1.62 1.68 1.60 1.44 1.42 1.36 1.30 1.35 1.47 1.54 1.65 1.83 2.01 2.17 2.31 2.15 2.33 2.87 2.69 2.58 2.31 2.08 1.91 1.62 1.39 1.28 1.33 1.36 1.62 1.69 1.75
1.70 1.73 1.67 1.68 1.63 1.50 1.51 1.56 1.55 1.48 1.53 1.50 1.35 1.23 1.22 1.35 1.44 1.56 1.66 1.78 1.91 2.03 2.14 2.22 2.53 2.67 2.69 2.51 2.07 1.87 1.87 1.75 1.43 1.32 1.31 1.34 1.43 1.55
1.80 1.80 1.78 1.74 1.62 1.55 1.56 1.44 1.33 1.41 1.51 1.46 1.35 1.28 1.24 1.31 1.42 1.51 1.64 1.71 1.91 2.00 2.04 2.13 2.31 2.65 2.74 2.28 2.07 1.92 1.72 1.90 1.68 1.34 1.25 1.29 1.34 1.34
1.83 1.81 1.72 1.65 1.63 1.52 1.42 1.34 1.31 1.38 1.42 1.33 1.34 1.38 1.35 1.37 1.41 1.44 1.59 1.68 1.85 1.86 1.98 2.15 2.23 2.40 2.56 2.46 2.34 1.98 1.68 1.58 1.52 1.35 1.28 1.40 1.48 1.44
1.82 1.72 1.52 1.43 1.42 1.37 1.35 1.31 1.29 1.29 1.23 1.25 1.30 1.35 1.38 1.40 1.43 1.43 1.52 1.66 1.75 1.71 1.82 2.02 2.22 2.52 2.71 2.74 2.53 2.11 1.79 1.61 1.52 1.38 1.26 1.40 1.64 1.63
1.59 1.42 1.28 1.29 1.29 1.24 1.22 1.20 1.17 1.13 1.15 1.23 1.28 1.31 1.34 1.38 1.43 1.48 1.51 1.60 1.63 1.63 1.73 1.87 2.20 2.56 2.72 2.76 2.80 2.39 2.06 1.80 1.68 1.64 1.46 1.38 1.56 1.60
1.35 1.31 1.25 1.20 1.20 1.19 1.15 1.11 1.07 1.07 1.16 1.25 1.25 1.22 1.26 1.34 1.39 1.40 1.43 1.53 1.62 1.65 1.71 1.79 2.10 2.46 2.69 2.58 2.65 2.61 2.45 2.12 1.88 1.85 1.68 1.47 1.45 1.61
1.31 1.23 1.18 1.17 1.15 1.12 1.10 1.09 1.10 1.12 1.13 1.20 1.23 1.20 1.20 1.29 1.33 1.29 1.34 1.48 1.61 1.68 1.73 1.73 1.88 2.19 2.37 2.32 2.32 2.33 2.46 2.50 2.15 1.94 1.78 1.76 1.75 1.83
1.27 1.27 1.20 1.18 1.17 1.13 1.13 1.14 1.14 1.11 1.09 1.11 1.13 1.14 1.16 1.23 1.28 1.26 1.32 1.43 1.48 1.52 1.60 1.63 1.70 2.03 2.35 2.46 2.33 2.20 2.32 2.47 2.50 2.20 1.93 1.92 2.19 2.52
1.31 1.30 1.25 1.19 1.14 1.11 1.11 1.10 1.10 1.06 1.02 1.04 1.05 1.06 1.10 1.17 1.17 1.20 1.24 1.30 1.34 1.38 1.47 1.59 1.67 1.91 2.25 2.39 2.37 2.20 2.16 2.23 2.33 2.36 2.36 2.07 1.72 1.62